Hourly Data Report for October 13, 2015

All times are specified in Local Standard Time (LST). Add 1 hour to adjust for Daylight Saving Time where and when it is observed.

QIKIQTARJUAQ A
NUNAVUT

67°32'48.000" N
64°01'54.000" W
5.50 m
2400577
YVM

Download Data

Hourly Data (October 2015)
Hourly Data Report for October 13, 2015
Temp Definition
°C
Dew Point Temp Definition
°C
Rel Hum Definition
%
Wind Dir Definition
10's deg

Wind Spd Definition
km/h
Visibility Definition
km
Stn Press Definition
kPa
Hmdx Definition


Wind Chill Definition


Weather Definition


TIME
00:00 Legend Double Dagger 0.8 -4.0 70 2 17 16.1 99.35     LegendNANA
01:00 Legend Double Dagger 0.1 -4.3 72 3 11 16.1 99.37     LegendNANA
02:00 Legend Double Dagger -0.2 -4.2 74 4 9 16.1 99.38   -3 LegendNANA
03:00 Legend Double Dagger -1.6 -5.0 78 8 9 16.1 99.37   -5 LegendNANA
04:00 Legend Double Dagger -0.8 -4.8 75 LegendMM 4 16.1 99.39   -2 LegendNANA
05:00 Legend Double Dagger 0.0 -4.3 73 24 9 16.1 99.41   -3 LegendNANA
06:00 Legend Double Dagger -1.1 -4.4 78 20 9 16.1 99.42   -4 LegendNANA
07:00 Legend Double Dagger -1.4 -5.3 75 14 8 16.1 99.43   -4 LegendNANA
08:00 Legend Double Dagger -2.0 -5.1 79 LegendMM 4 16.1 99.45   -3 LegendNANA
09:00 Legend Double Dagger -1.9 -5.2 78 18 5 14.5 99.45   -4 LegendNANA
10:00 Legend Double Dagger -2.0 -5.3 78   0 16.1 99.46     LegendNANA
11:00 Legend Double Dagger -2.1 -5.2 79 LegendMM 4 16.1 99.48   -4 LegendNANA
12:00 Legend Double Dagger -0.9 -4.4 77 21 5 16.1 99.50   -3 LegendNANA
13:00 Legend Double Dagger -1.8 -4.5 82 LegendMM 4 16.1 99.49   -3 LegendNANA
14:00 Legend Double Dagger -3.5 -6.8 78 18 4 16.1 99.51   -5 LegendNANA
15:00 Legend Double Dagger -3.7 -6.6 80 19 5 16.1 99.51   -6 LegendNANA
16:00 Legend Double Dagger -3.0 -6.2 79 14 5 16.1 99.52   -5 LegendNANA
17:00 Legend Double Dagger -3.7 -6.7 80 21 5 14.5 99.51   -6 LegendNANA
18:00 Legend Double Dagger -3.4 -5.5 86   0 16.1 99.54     LegendNANA
19:00 Legend Double Dagger -3.9 -6.7 81 LegendMM 4 16.1 99.53   -6 LegendNANA
20:00 Legend Double Dagger -4.2 -7.3 79   0 16.1 99.54     LegendNANA
21:00 Legend Double Dagger -4.1 -6.3 85   0 16.1 99.54     LegendNANA
22:00 Legend Double Dagger -3.7 -6.5 81 15 8 16.1 99.52   -7 LegendNANA
23:00 Legend Double Dagger -3.6 -5.7 86 LegendMM 4 16.1 99.50   -5 LegendNANA

Notes on Data Quality.

Legend

  • E = Estimated
  • M = Missing
  • NA = Not Available
  • ‡ = Partner data that is not subject to review by the National Climate Archives
Date modified: